Tracking 31027 objects as of 18-Jul-2025
HD Live streaming from Space Station
objects crossing your sky now

SL-14 DEB

Track SL-14 DEB now!
10-day predictions


NORAD ID: 25999
Int'l Code: 1991-068J
Perigee: 1,372.9 km
Apogee: 1,471.6 km
Inclination: 82.7 °
Period: 114.1 minutes
Semi major axis: 7793 km
RCS: 0.0764 m2 (small)
Launch date: September 28, 1991
Source: Commonwealth of Independent States (former USSR) (CIS)
Launch site: PLESETSK MISSILE AND SPACE COMPLEX (PKMTR)

Note: This is SATELLITE DEBRIS
Your satellite tracking list
Your tracking list is empty




NASA's NSSDC Master Catalog

Two Line Element Set (TLE):
1 25999U 91068J   25199.42673435  .00000066  00000-0  30674-3 0  9993
2 25999  82.6995 318.3259 0063331  93.6176 335.8032 12.61893843186334
Source of the keplerian elements: AFSPC